START_TIME,STEP,MOV.,M34,t_acc.,L5,t_acc.,L18,t_acc.,L14,t_acc.
1979-03-03 18:00:14.190 ,3,1,6.,12.0,8.,12.0,0.,12.0,0.,12.0
1979-03-03 18:00:26.190 ,3,1,10.,12.0,6.,12.0,0.,12.0,0.,12.0
1979-03-03 18:00:38.190 ,4,1,9.,12.0,10.,12.0,0.,12.0,0.,12.0
1979-03-03 18:00:50.190 ,4,1,24.,12.0,10.,12.0,0.,12.0,2.,12.0
1979-03-03 18:01:02.190 ,5,1,16.,12.0,4.,12.0,0.,12.0,0.,12.0
1979-03-03 18:01:14.190 ,5,1,19.,12.0,9.,12.0,0.,12.0,0.,12.0
1979-03-03 18:01:26.190 ,6,1,20.,12.0,10.,12.0,0.,12.0,0.,12.0
1979-03-03 18:01:38.190 ,6,1,20.,12.0,10.,12.0,0.,12.0,0.,12.0
1979-03-03 18:01:50.190 ,7,1,43.,12.0,12.,12.0,0.,12.0,0.,12.0
1979-03-03 18:02:02.190 ,7,1,5.,12.0,9.,12.0,0.,12.0,2.,12.0
1979-03-03 18:02:14.190 ,7,1,0.,12.0,5.,12.0,0.,12.0,2.,12.0
1979-03-03 18:02:26.190 ,7,1,0.,12.0,8.,12.0,0.,12.0,0.,12.0
1979-03-03 18:02:38.190 ,6,1,0.,12.0,12.,12.0,0.,12.0,0.,12.0
1979-03-03 18:02:50.190 ,6,1,16.,12.0,13.,12.0,0.,12.0,0.,12.0
1979-03-03 18:03:02.190 ,5,1,28.,12.0,14.,12.0,0.,12.0,1.,12.0
1979-03-03 18:03:14.190 ,5,1,21.,12.0,11.,12.0,0.,12.0,0.,12.0
1979-03-03 18:03:26.190 ,4,1,12.,12.0,16.,12.0,0.,12.0,0.,12.0
1979-03-03 18:03:38.190 ,4,1,15.,12.0,9.,12.0,0.,12.0,1.,12.0
1979-03-03 18:03:50.190 ,3,1,9.,12.0,5.,12.0,0.,12.0,0.,12.0
1979-03-03 18:04:02.190 ,3,1,7.,12.0,10.,12.0,0.,12.0,2.,12.0
1979-03-03 18:04:14.190 ,2,1,6.,12.0,8.,12.0,0.,12.0,0.,12.0
1979-03-03 18:04:26.190 ,2,1,9.,12.0,11.,12.0,0.,12.0,0.,12.0
1979-03-03 18:04:38.190 ,1,1,6.,12.0,5.,12.0,0.,12.0,0.,12.0
1979-03-03 18:04:50.190 ,1,1,4.,12.0,8.,12.0,0.,12.0,1.,12.0
1979-03-03 18:05:02.190 ,0,1,4.,12.0,12.,12.0,0.,12.0,0.,12.0
1979-03-03 18:05:14.190 ,0,1,8.,12.0,10.,12.0,0.,12.0,1.,12.0
1979-03-03 18:05:26.190 ,0,1,13.,12.0,8.,12.0,0.,12.0,1.,12.0
1979-03-03 18:05:38.190 ,0,1,13.,12.0,10.,12.0,0.,12.0,1.,12.0
1979-03-03 18:05:50.190 ,1,1,6.,12.0,11.,12.0,0.,12.0,0.,12.0
1979-03-03 18:06:02.190 ,1,1,8.,12.0,4.,12.0,0.,12.0,0.,12.0
1979-03-03 18:06:14.190 ,2,1,15.,12.0,15.,12.0,0.,12.0,0.,12.0
1979-03-03 18:06:26.190 ,2,1,9.,12.0,7.,12.0,0.,12.0,1.,12.0
1979-03-03 18:06:38.190 ,3,1,9.,12.0,6.,12.0,0.,12.0,0.,12.0
1979-03-03 18:06:50.190 ,3,1,4.,12.0,6.,12.0,0.,12.0,0.,12.0
1979-03-03 18:07:02.190 ,4,1,10.,12.0,6.,12.0,0.,12.0,0.,12.0
1979-03-03 18:07:14.190 ,4,1,22.,12.0,7.,12.0,0.,12.0,1.,12.0
1979-03-03 18:07:26.190 ,5,1,17.,12.0,11.,12.0,0.,12.0,0.,12.0
1979-03-03 18:07:38.190 ,5,1,16.,12.0,6.,12.0,0.,12.0,0.,12.0
1979-03-03 18:07:50.190 ,6,1,22.,12.0,16.,12.0,0.,12.0,0.,12.0
1979-03-03 18:08:02.190 ,6,1,20.,12.0,6.,12.0,0.,12.0,0.,12.0
1979-03-03 18:08:14.190 ,7,1,24.,12.0,13.,12.0,0.,12.0,1.,12.0
1979-03-03 18:08:26.190 ,7,1,8.,12.0,10.,12.0,0.,12.0,1.,12.0
1979-03-03 18:08:38.190 ,7,1,0.,12.0,10.,12.0,0.,12.0,0.,12.0
1979-03-03 18:08:50.190 ,7,1,0.,12.0,13.,12.0,0.,12.0,1.,12.0
1979-03-03 18:09:02.190 ,6,1,0.,12.0,5.,12.0,0.,12.0,0.,12.0
1979-03-03 18:09:14.190 ,6,1,12.,12.0,14.,12.0,0.,12.0,1.,12.0
1979-03-03 18:09:26.190 ,5,1,19.,12.0,12.,12.0,0.,12.0,0.,12.0
1979-03-03 18:09:38.190 ,5,1,18.,12.0,10.,12.0,0.,12.0,0.,12.0
1979-03-03 18:09:50.190 ,4,1,18.,12.0,10.,12.0,0.,12.0,0.,12.0
1979-03-03 18:10:02.190 ,4,1,23.,12.0,7.,12.0,0.,12.0,0.,12.0
1979-03-03 18:10:14.190 ,3,1,16.,12.0,22.,12.0,0.,12.0,3.,12.0
1979-03-03 18:10:26.190 ,3,1,22.,12.0,10.,12.0,0.,12.0,0.,12.0
1979-03-03 18:10:38.190 ,2,1,8.,12.0,9.,12.0,0.,12.0,0.,12.0
1979-03-03 18:10:50.190 ,2,1,12.,12.0,10.,12.0,0.,12.0,0.,12.0
1979-03-03 18:11:02.190 ,1,1,10.,12.0,11.,12.0,0.,12.0,0.,12.0
1979-03-03 18:11:14.190 ,1,1,8.,12.0,5.,12.0,0.,12.0,0.,12.0
1979-03-03 18:11:26.190 ,0,1,8.,12.0,12.,12.0,0.,12.0,0.,12.0
1979-03-03 18:11:38.190 ,0,1,9.,12.0,8.,12.0,0.,12.0,1.,12.0
1979-03-03 18:11:50.190 ,0,1,9.,12.0,9.,12.0,0.,12.0,0.,12.0
1979-03-03 18:12:02.190 ,0,1,9.,12.0,9.,12.0,0.,12.0,0.,12.0
1979-03-03 18:12:14.190 ,1,1,15.,12.0,13.,12.0,0.,12.0,0.,12.0
1979-03-03 18:12:26.190 ,1,1,11.,12.0,4.,12.0,0.,12.0,0.,12.0
1979-03-03 18:12:38.190 ,2,1,7.,12.0,6.,12.0,0.,12.0,0.,12.0
1979-03-03 18:12:50.190 ,2,1,6.,12.0,7.,12.0,0.,12.0,2.,12.0
1979-03-03 18:13:02.190 ,0,0,8.,12.0,8.,12.0,0.,12.0,1.,12.0
1979-03-03 18:13:14.190 ,0,0,14.,12.0,7.,12.0,0.,12.0,0.,12.0
1979-03-03 18:13:41.190 ,0,0,,0,,0,,0,,0
1979-03-03 18:13:53.190 ,0,0,,0,,0,,0,,0
1979-03-03 18:13:50.190 ,5,1,22.,12.0,19.,12.0,0.,12.0,0.,12.0
1979-03-03 18:14:02.190 ,5,1,21.,12.0,15.,12.0,0.,12.0,0.,12.0
1979-03-03 18:14:14.190 ,6,1,25.,12.0,15.,12.0,0.,12.0,0.,12.0
1979-03-03 18:14:26.190 ,6,1,18.,12.0,17.,12.0,0.,12.0,1.,12.0
1979-03-03 18:14:38.190 ,7,1,18.,12.0,9.,12.0,0.,12.0,2.,12.0
1979-03-03 18:14:50.190 ,7,1,4.,12.0,5.,12.0,0.,12.0,1.,12.0
1979-03-03 18:15:02.190 ,7,1,0.,12.0,7.,12.0,0.,12.0,1.,12.0
1979-03-03 18:15:14.190 ,7,1,0.,12.0,11.,12.0,0.,12.0,0.,12.0
1979-03-03 18:15:26.190 ,6,1,0.,12.0,5.,12.0,0.,12.0,0.,12.0
1979-03-03 18:15:38.190 ,6,1,13.,12.0,13.,12.0,0.,12.0,1.,12.0
1979-03-03 18:15:50.190 ,5,1,18.,12.0,9.,12.0,0.,12.0,0.,12.0
1979-03-03 18:16:02.190 ,5,1,21.,12.0,14.,12.0,0.,12.0,0.,12.0
1979-03-03 18:16:14.190 ,4,1,23.,12.0,15.,12.0,0.,12.0,1.,12.0
1979-03-03 18:16:26.190 ,4,1,20.,12.0,11.,12.0,0.,12.0,0.,12.0
1979-03-03 18:16:38.190 ,3,1,15.,12.0,5.,12.0,0.,12.0,0.,12.0
1979-03-03 18:16:50.190 ,3,1,16.,12.0,8.,12.0,0.,12.0,0.,12.0
1979-03-03 18:17:02.190 ,2,1,17.,12.0,8.,12.0,0.,12.0,0.,12.0
1979-03-03 18:17:14.190 ,2,1,15.,12.0,9.,12.0,0.,12.0,0.,12.0
1979-03-03 18:17:26.190 ,1,1,11.,12.0,9.,12.0,0.,12.0,0.,12.0
1979-03-03 18:17:38.190 ,1,1,11.,12.0,11.,12.0,0.,12.0,1.,12.0
1979-03-03 18:17:50.190 ,0,1,9.,12.0,14.,12.0,0.,12.0,1.,12.0
1979-03-03 18:18:02.190 ,0,1,15.,12.0,12.,12.0,0.,12.0,0.,12.0
1979-03-03 18:18:14.190 ,0,0,9.,12.0,11.,12.0,0.,12.0,0.,12.0
1979-03-03 18:18:26.190 ,0,0,17.,12.0,11.,12.0,0.,12.0,1.,12.0
1979-03-03 18:18:38.190 ,1,1,,0,,0,,0,,0
1979-03-03 18:18:50.190 ,1,1,12.,12.0,10.,12.0,0.,12.0,0.,12.0
1979-03-03 18:19:02.190 ,2,1,6.,12.0,14.,12.0,0.,12.0,0.,12.0
1979-03-03 18:19:14.190 ,2,1,14.,12.0,10.,12.0,0.,12.0,0.,12.0
1979-03-03 18:19:26.190 ,3,1,12.,12.0,9.,12.0,0.,12.0,1.,12.0
1979-03-03 18:19:38.190 ,3,1,14.,12.0,12.,12.0,0.,12.0,1.,12.0
1979-03-03 18:19:50.190 ,4,1,18.,12.0,19.,12.0,0.,12.0,0.,12.0
1979-03-03 18:20:02.190 ,4,1,23.,12.0,18.,12.0,0.,12.0,0.,12.0
1979-03-03 18:20:14.190 ,5,1,39.,12.0,18.,12.0,0.,12.0,0.,12.0
1979-03-03 18:20:26.190 ,5,1,31.,12.0,26.,12.0,0.,12.0,0.,12.0
1979-03-03 18:20:38.190 ,6,1,47.,12.0,18.,12.0,0.,12.0,0.,12.0
1979-03-03 18:20:50.190 ,6,1,41.,12.0,17.,12.0,0.,12.0,1.,12.0
1979-03-03 18:21:02.190 ,7,1,31.,12.0,15.,12.0,0.,12.0,0.,12.0
1979-03-03 18:21:14.190 ,7,1,12.,12.0,10.,12.0,0.,12.0,0.,12.0
1979-03-03 18:21:26.190 ,7,1,0.,12.0,12.,12.0,0.,12.0,0.,12.0
1979-03-03 18:21:38.190 ,7,1,0.,12.0,11.,12.0,0.,12.0,0.,12.0
1979-03-03 18:21:50.190 ,6,1,0.,12.0,9.,12.0,0.,12.0,1.,12.0
1979-03-03 18:22:02.190 ,6,1,18.,12.0,15.,12.0,0.,12.0,1.,12.0
1979-03-03 18:22:14.190 ,5,1,34.,12.0,17.,12.0,0.,12.0,0.,12.0
1979-03-03 18:22:26.190 ,5,1,26.,12.0,9.,12.0,0.,12.0,0.,12.0
1979-03-03 18:22:38.190 ,4,1,33.,12.0,17.,12.0,0.,12.0,0.,12.0
1979-03-03 18:22:50.190 ,4,1,28.,12.0,16.,12.0,0.,12.0,0.,12.0
1979-03-03 18:23:02.190 ,0,0,32.,12.0,14.,12.0,0.,12.0,0.,12.0
1979-03-03 18:23:14.190 ,0,0,,0,,0,,0,,0
1979-03-03 18:23:26.190 ,0,0,,0,,0,,0,,0
1979-03-03 18:23:38.190 ,0,0,,0,,0,,0,,0
1979-03-03 18:57:52.590 ,0,0,,0,,0,,0,,0
1979-03-03 18:58:04.590 ,0,0,40.,12.0,31.,12.0,0.,12.0,1.,12.0
1979-03-03 18:58:14.190 ,4,1,34.,12.0,32.,12.0,0.,12.0,1.,12.0
1979-03-03 18:58:26.190 ,4,1,48.,12.0,37.,12.0,0.,12.0,0.,12.0
1979-03-03 18:58:38.190 ,5,1,51.,12.0,46.,12.0,0.,12.0,0.,12.0
1979-03-03 18:58:50.190 ,5,1,59.,12.0,39.,12.0,0.,12.0,0.,12.0
1979-03-03 18:59:02.190 ,6,1,66.,12.0,46.,12.0,0.,12.0,1.,12.0
1979-03-03 18:59:14.190 ,6,1,54.,12.0,38.,12.0,0.,12.0,0.,12.0
1979-03-03 18:59:26.190 ,7,1,57.,12.0,62.,12.0,0.,12.0,1.,12.0
1979-03-03 18:59:38.190 ,7,1,22.,12.0,20.,12.0,0.,12.0,1.,12.0
1979-03-03 18:59:50.190 ,7,1,0.,12.0,9.,12.0,0.,12.0,3.,12.0
1979-03-03 19:00:02.190 ,7,1,0.,12.0,9.,12.0,0.,12.0,1.,12.0
1979-03-03 19:00:14.190 ,6,1,0.,12.0,11.,12.0,0.,12.0,0.,12.0
1979-03-03 19:00:26.190 ,6,1,34.,12.0,26.,12.0,0.,12.0,0.,12.0
1979-03-03 19:00:38.190 ,5,1,35.,12.0,35.,12.0,0.,12.0,0.,12.0
1979-03-03 19:00:50.190 ,5,1,51.,12.0,49.,12.0,0.,12.0,1.,12.0
1979-03-03 19:01:02.190 ,4,1,48.,12.0,38.,12.0,0.,12.0,0.,12.0
1979-03-03 19:01:14.190 ,4,1,48.,12.0,45.,12.0,0.,12.0,0.,12.0
1979-03-03 19:01:26.190 ,3,1,44.,12.0,42.,12.0,0.,12.0,0.,12.0
1979-03-03 19:01:38.190 ,3,1,48.,12.0,35.,12.0,0.,12.0,0.,12.0
1979-03-03 19:01:50.190 ,2,1,28.,12.0,24.,12.0,0.,12.0,0.,12.0
1979-03-03 19:02:02.190 ,2,1,27.,12.0,24.,12.0,0.,12.0,0.,12.0
1979-03-03 19:02:14.190 ,1,1,28.,12.0,24.,12.0,0.,12.0,0.,12.0
1979-03-03 19:02:26.190 ,1,1,19.,12.0,34.,12.0,0.,12.0,0.,12.0
1979-03-03 19:02:38.190 ,0,1,30.,12.0,24.,12.0,0.,12.0,0.,12.0
1979-03-03 19:02:50.190 ,0,1,21.,12.0,24.,12.0,0.,12.0,0.,12.0
1979-03-03 19:03:02.190 ,0,1,20.,12.0,27.,12.0,0.,12.0,0.,12.0
1979-03-03 19:03:14.190 ,0,1,16.,12.0,23.,12.0,0.,12.0,2.,12.0
1979-03-03 19:03:26.190 ,1,1,33.,12.0,21.,12.0,0.,12.0,0.,12.0
1979-03-03 19:03:38.190 ,1,1,24.,12.0,30.,12.0,0.,12.0,1.,12.0
1979-03-03 19:03:50.190 ,2,1,22.,12.0,27.,12.0,0.,12.0,0.,12.0
1979-03-03 19:04:02.190 ,2,1,17.,12.0,21.,12.0,0.,12.0,0.,12.0
1979-03-03 19:04:14.190 ,3,1,31.,12.0,21.,12.0,0.,12.0,0.,12.0
1979-03-03 19:04:26.190 ,3,1,31.,12.0,23.,12.0,0.,12.0,0.,12.0
1979-03-03 19:04:38.190 ,4,1,35.,12.0,23.,12.0,0.,12.0,0.,12.0
1979-03-03 19:04:50.190 ,4,1,33.,12.0,27.,12.0,0.,12.0,1.,12.0
1979-03-03 19:05:02.190 ,5,1,49.,12.0,35.,12.0,0.,12.0,0.,12.0
1979-03-03 19:05:14.190 ,5,1,32.,12.0,38.,12.0,0.,12.0,1.,12.0
1979-03-03 19:05:26.190 ,6,1,27.,12.0,23.,12.0,0.,12.0,0.,12.0
1979-03-03 19:05:38.190 ,6,1,28.,12.0,24.,12.0,0.,12.0,0.,12.0
1979-03-03 19:05:50.190 ,7,1,30.,12.0,29.,12.0,0.,12.0,0.,12.0
1979-03-03 19:06:02.190 ,7,1,12.,12.0,17.,12.0,0.,12.0,0.,12.0
1979-03-03 19:06:14.190 ,7,1,0.,12.0,10.,12.0,0.,12.0,0.,12.0
1979-03-03 19:06:26.190 ,7,1,0.,12.0,10.,12.0,0.,12.0,1.,12.0
1979-03-03 19:06:38.190 ,6,1,0.,12.0,9.,12.0,0.,12.0,0.,12.0
1979-03-03 19:06:50.190 ,6,1,20.,12.0,20.,12.0,0.,12.0,0.,12.0
1979-03-03 19:07:02.190 ,5,1,24.,12.0,20.,12.0,0.,12.0,0.,12.0
1979-03-03 19:07:14.190 ,5,1,20.,12.0,17.,12.0,0.,12.0,2.,12.0
1979-03-03 19:07:26.190 ,4,1,29.,12.0,24.,12.0,0.,12.0,0.,12.0
1979-03-03 19:07:38.190 ,4,1,34.,12.0,23.,12.0,0.,12.0,0.,12.0
1979-03-03 19:07:50.190 ,3,1,34.,12.0,18.,12.0,0.,12.0,1.,12.0
1979-03-03 19:08:02.190 ,3,1,30.,12.0,15.,12.0,0.,12.0,1.,12.0
1979-03-03 19:08:14.190 ,2,1,34.,12.0,39.,12.0,0.,12.0,0.,12.0
1979-03-03 19:08:26.190 ,2,1,36.,12.0,30.,12.0,0.,12.0,2.,12.0
1979-03-03 19:08:38.190 ,1,1,32.,12.0,21.,12.0,0.,12.0,0.,12.0
1979-03-03 19:08:50.190 ,1,1,29.,12.0,30.,12.0,0.,12.0,1.,12.0
1979-03-03 19:09:02.190 ,0,1,29.,12.0,25.,12.0,0.,12.0,0.,12.0
1979-03-03 19:09:14.190 ,0,1,34.,12.0,24.,12.0,0.,12.0,0.,12.0
1979-03-03 19:09:26.190 ,0,1,49.,12.0,19.,12.0,0.,12.0,0.,12.0
1979-03-03 19:09:38.190 ,0,1,28.,12.0,24.,12.0,0.,12.0,0.,12.0
1979-03-03 19:09:50.190 ,1,1,29.,12.0,21.,12.0,0.,12.0,0.,12.0
1979-03-03 19:10:02.190 ,1,1,41.,12.0,34.,12.0,0.,12.0,0.,12.0
1979-03-03 19:10:14.190 ,2,1,38.,12.0,30.,12.0,0.,12.0,1.,12.0
1979-03-03 19:10:26.190 ,2,1,39.,12.0,23.,12.0,0.,12.0,0.,12.0
1979-03-03 19:10:38.190 ,3,1,42.,12.0,22.,12.0,0.,12.0,0.,12.0
1979-03-03 19:10:50.190 ,3,1,28.,12.0,26.,12.0,0.,12.0,0.,12.0
1979-03-03 19:11:02.190 ,4,1,36.,12.0,29.,12.0,0.,12.0,0.,12.0
1979-03-03 19:11:14.190 ,4,1,35.,12.0,27.,12.0,0.,12.0,0.,12.0
1979-03-03 19:11:26.190 ,5,1,31.,12.0,18.,12.0,0.,12.0,1.,12.0
1979-03-03 19:11:38.190 ,5,1,17.,12.0,28.,12.0,0.,12.0,0.,12.0
1979-03-03 19:11:50.190 ,6,1,27.,12.0,18.,12.0,0.,12.0,0.,12.0
1979-03-03 19:12:02.190 ,6,1,21.,12.0,21.,12.0,0.,12.0,1.,12.0
1979-03-03 19:12:14.190 ,7,1,16.,12.0,19.,12.0,0.,12.0,0.,12.0
1979-03-03 19:12:26.190 ,7,1,6.,12.0,6.,12.0,0.,12.0,1.,12.0
1979-03-03 19:12:38.190 ,7,1,0.,12.0,8.,12.0,0.,12.0,1.,12.0
1979-03-03 19:12:50.190 ,7,1,0.,12.0,12.,12.0,0.,12.0,0.,12.0
1979-03-03 19:13:02.190 ,6,1,0.,12.0,12.,12.0,0.,12.0,1.,12.0
1979-03-03 19:13:14.190 ,6,1,13.,12.0,11.,12.0,0.,12.0,1.,12.0
1979-03-03 19:13:26.190 ,5,1,25.,12.0,22.,12.0,0.,12.0,0.,12.0
1979-03-03 19:13:38.190 ,5,1,34.,12.0,30.,12.0,0.,12.0,0.,12.0
1979-03-03 19:13:50.190 ,4,1,22.,12.0,32.,12.0,0.,12.0,0.,12.0
1979-03-03 19:14:02.190 ,4,1,37.,12.0,29.,12.0,0.,12.0,1.,12.0
1979-03-03 19:14:14.190 ,3,1,31.,12.0,24.,12.0,0.,12.0,0.,12.0
1979-03-03 19:14:26.190 ,3,1,38.,12.0,37.,12.0,0.,12.0,0.,12.0
1979-03-03 19:14:38.190 ,2,1,41.,12.0,32.,12.0,0.,12.0,1.,12.0
1979-03-03 19:14:50.190 ,2,1,42.,12.0,33.,12.0,0.,12.0,0.,12.0
1979-03-03 19:15:02.190 ,1,1,45.,12.0,43.,12.0,0.,12.0,0.,12.0
1979-03-03 19:15:14.190 ,1,1,41.,12.0,22.,12.0,0.,12.0,0.,12.0
1979-03-03 19:15:26.190 ,0,1,33.,12.0,37.,12.0,0.,12.0,0.,12.0
1979-03-03 19:15:38.190 ,0,1,36.,12.0,28.,12.0,0.,12.0,0.,12.0
1979-03-03 19:15:50.190 ,0,1,24.,12.0,21.,12.0,0.,12.0,0.,12.0
1979-03-03 19:16:02.190 ,0,1,26.,12.0,28.,12.0,0.,12.0,1.,12.0
1979-03-03 19:16:14.190 ,1,1,27.,12.0,30.,12.0,0.,12.0,0.,12.0
1979-03-03 19:16:26.190 ,1,1,40.,12.0,25.,12.0,0.,12.0,1.,12.0
1979-03-03 19:16:38.190 ,2,1,33.,12.0,23.,12.0,0.,12.0,0.,12.0
1979-03-03 19:16:50.190 ,2,1,44.,12.0,23.,12.0,0.,12.0,1.,12.0
1979-03-03 19:17:02.190 ,3,1,30.,12.0,22.,12.0,0.,12.0,0.,12.0
1979-03-03 19:17:14.190 ,3,1,41.,12.0,29.,12.0,0.,12.0,0.,12.0
1979-03-03 19:17:26.190 ,4,1,33.,12.0,33.,12.0,0.,12.0,0.,12.0
1979-03-03 19:17:38.190 ,4,1,41.,12.0,25.,12.0,0.,12.0,0.,12.0
1979-03-03 19:17:50.190 ,5,1,31.,12.0,36.,12.0,0.,12.0,0.,12.0
1979-03-03 19:18:02.190 ,5,1,17.,12.0,32.,12.0,0.,12.0,0.,12.0
1979-03-03 19:18:14.190 ,6,1,24.,12.0,16.,12.0,0.,12.0,0.,12.0
1979-03-03 19:18:26.190 ,6,1,31.,12.0,24.,12.0,0.,12.0,1.,12.0
1979-03-03 19:18:38.190 ,7,1,15.,12.0,22.,12.0,0.,12.0,0.,12.0
1979-03-03 19:18:50.190 ,7,1,9.,12.0,16.,12.0,0.,12.0,0.,12.0
1979-03-03 19:19:02.190 ,7,1,0.,12.0,9.,12.0,0.,12.0,0.,12.0
1979-03-03 19:19:14.190 ,7,1,0.,12.0,8.,12.0,0.,12.0,0.,12.0
1979-03-03 19:19:26.190 ,6,1,0.,12.0,14.,12.0,0.,12.0,0.,12.0
1979-03-03 19:19:38.190 ,6,1,19.,12.0,9.,12.0,0.,12.0,0.,12.0
1979-03-03 19:19:50.190 ,5,1,26.,12.0,26.,12.0,0.,12.0,0.,12.0
1979-03-03 19:20:02.190 ,5,1,34.,12.0,22.,12.0,0.,12.0,1.,12.0
1979-03-03 19:20:14.190 ,4,1,30.,12.0,20.,12.0,0.,12.0,0.,12.0
1979-03-03 19:20:26.190 ,4,1,24.,12.0,37.,12.0,0.,12.0,0.,12.0
1979-03-03 19:20:38.190 ,3,1,32.,12.0,30.,12.0,0.,12.0,0.,12.0
1979-03-03 19:20:50.190 ,3,1,32.,12.0,28.,12.0,0.,12.0,0.,12.0
1979-03-03 19:21:02.190 ,2,1,46.,12.0,37.,12.0,0.,12.0,0.,12.0
1979-03-03 19:21:14.190 ,2,1,39.,12.0,36.,12.0,0.,12.0,0.,12.0
1979-03-03 19:21:26.190 ,1,1,39.,12.0,32.,12.0,0.,12.0,1.,12.0
1979-03-03 19:21:38.190 ,1,1,34.,12.0,32.,12.0,0.,12.0,0.,12.0
1979-03-03 19:21:50.190 ,0,1,26.,12.0,24.,12.0,0.,12.0,0.,12.0
1979-03-03 19:22:02.190 ,0,1,26.,12.0,26.,12.0,0.,12.0,0.,12.0
1979-03-03 19:22:14.190 ,0,1,31.,12.0,29.,12.0,0.,12.0,0.,12.0
1979-03-03 19:22:26.190 ,0,1,22.,12.0,28.,12.0,0.,12.0,0.,12.0
1979-03-03 19:22:38.190 ,1,1,21.,12.0,34.,12.0,0.,12.0,1.,12.0
1979-03-03 19:22:50.190 ,1,1,38.,12.0,21.,12.0,0.,12.0,0.,12.0
1979-03-03 19:23:02.190 ,0,0,23.,12.0,34.,12.0,0.,12.0,0.,12.0
1979-03-03 19:23:14.190 ,0,0,31.,12.0,24.,12.0,0.,12.0,2.,12.0
1979-03-03 19:23:26.190 ,3,1,25.,12.0,23.,12.0,0.,12.0,0.,12.0
1979-03-03 19:23:38.190 ,3,1,26.,12.0,26.,12.0,0.,12.0,0.,12.0
1979-03-03 19:23:50.190 ,4,1,24.,12.0,29.,12.0,0.,12.0,1.,12.0
1979-03-03 19:24:02.190 ,4,1,40.,12.0,22.,12.0,0.,12.0,0.,12.0
1979-03-03 19:24:14.190 ,5,1,45.,12.0,26.,12.0,0.,12.0,0.,12.0
1979-03-03 19:24:26.190 ,5,1,33.,12.0,22.,12.0,0.,12.0,0.,12.0
1979-03-03 19:24:38.190 ,6,1,33.,12.0,27.,12.0,0.,12.0,0.,12.0
1979-03-03 19:24:50.190 ,6,1,36.,12.0,26.,12.0,0.,12.0,0.,12.0
1979-03-03 19:25:02.190 ,7,1,29.,12.0,20.,12.0,0.,12.0,0.,12.0
1979-03-03 19:25:14.190 ,7,1,5.,12.0,16.,12.0,0.,12.0,0.,12.0
1979-03-03 19:25:26.190 ,7,1,0.,12.0,6.,12.0,0.,12.0,1.,12.0
1979-03-03 19:25:38.190 ,7,1,0.,12.0,3.,12.0,0.,12.0,0.,12.0
1979-03-03 19:25:50.190 ,6,1,0.,12.0,8.,12.0,0.,12.0,0.,12.0
1979-03-03 19:26:02.190 ,6,1,33.,12.0,21.,12.0,0.,12.0,0.,12.0
1979-03-03 19:26:14.190 ,5,1,31.,12.0,26.,12.0,0.,12.0,0.,12.0
1979-03-03 19:26:26.190 ,5,1,37.,12.0,28.,12.0,0.,12.0,1.,12.0
1979-03-03 19:26:38.190 ,4,1,35.,12.0,29.,12.0,0.,12.0,0.,12.0
1979-03-03 19:26:50.190 ,4,1,36.,12.0,33.,12.0,0.,12.0,1.,12.0
1979-03-03 19:27:02.190 ,3,1,30.,12.0,38.,12.0,0.,12.0,0.,12.0
1979-03-03 19:27:14.190 ,3,1,44.,12.0,32.,12.0,0.,12.0,0.,12.0
1979-03-03 19:27:26.190 ,2,1,38.,12.0,30.,12.0,0.,12.0,0.,12.0
1979-03-03 19:27:38.190 ,2,1,41.,12.0,26.,12.0,0.,12.0,0.,12.0
1979-03-03 19:27:50.190 ,1,1,25.,12.0,18.,12.0,0.,12.0,0.,12.0
1979-03-03 19:28:02.190 ,1,1,25.,12.0,34.,12.0,0.,12.0,0.,12.0
1979-03-03 19:28:14.190 ,0,1,26.,12.0,29.,12.0,0.,12.0,0.,12.0
1979-03-03 19:28:26.190 ,0,1,21.,12.0,21.,12.0,0.,12.0,0.,12.0
1979-03-03 19:28:38.190 ,0,1,21.,12.0,19.,12.0,0.,12.0,0.,12.0
1979-03-03 19:28:50.190 ,0,1,32.,12.0,21.,12.0,0.,12.0,1.,12.0
1979-03-03 19:29:02.190 ,1,1,27.,12.0,25.,12.0,0.,12.0,0.,12.0
1979-03-03 19:29:14.190 ,1,1,34.,12.0,20.,12.0,0.,12.0,1.,12.0
1979-03-03 19:29:26.190 ,2,1,23.,12.0,31.,12.0,0.,12.0,0.,12.0
1979-03-03 19:29:38.190 ,2,1,29.,12.0,47.,12.0,0.,12.0,0.,12.0
1979-03-03 19:29:50.190 ,3,1,31.,12.0,30.,12.0,0.,12.0,0.,12.0
1979-03-03 19:30:02.190 ,3,1,38.,12.0,25.,12.0,0.,12.0,0.,12.0
1979-03-03 19:30:14.190 ,4,1,44.,12.0,28.,12.0,0.,12.0,0.,12.0
1979-03-03 19:30:26.190 ,4,1,44.,12.0,19.,12.0,0.,12.0,0.,12.0
1979-03-03 19:30:38.190 ,5,1,29.,12.0,22.,12.0,0.,12.0,0.,12.0
1979-03-03 19:30:50.190 ,5,1,35.,12.0,25.,12.0,0.,12.0,0.,12.0
1979-03-03 19:31:02.190 ,6,1,37.,12.0,38.,12.0,0.,12.0,0.,12.0
1979-03-03 19:31:14.190 ,6,1,31.,12.0,39.,12.0,0.,12.0,1.,12.0
1979-03-03 19:31:26.190 ,7,1,39.,12.0,37.,12.0,0.,12.0,0.,12.0
1979-03-03 19:31:38.190 ,7,1,12.,12.0,22.,12.0,0.,12.0,0.,12.0
1979-03-03 19:31:50.190 ,7,1,0.,12.0,6.,12.0,0.,12.0,1.,12.0
1979-03-03 19:32:02.190 ,7,1,0.,12.0,7.,12.0,0.,12.0,0.,12.0
1979-03-03 19:32:14.190 ,6,1,0.,12.0,13.,12.0,0.,12.0,0.,12.0
1979-03-03 19:32:26.190 ,6,1,20.,12.0,24.,12.0,0.,12.0,0.,12.0
1979-03-03 19:32:38.190 ,5,1,27.,12.0,38.,12.0,0.,12.0,1.,12.0
1979-03-03 19:32:50.190 ,5,1,44.,12.0,42.,12.0,0.,12.0,0.,12.0
1979-03-03 19:33:02.190 ,4,1,43.,12.0,32.,12.0,0.,12.0,0.,12.0
1979-03-03 19:33:14.190 ,4,1,39.,12.0,31.,12.0,0.,12.0,1.,12.0
1979-03-03 19:33:26.190 ,3,1,28.,12.0,34.,12.0,0.,12.0,0.,12.0
1979-03-03 19:33:38.190 ,3,1,30.,12.0,34.,12.0,0.,12.0,0.,12.0
1979-03-03 19:33:50.190 ,2,1,20.,12.0,23.,12.0,0.,12.0,0.,12.0
1979-03-03 19:34:02.190 ,2,1,25.,12.0,18.,12.0,0.,12.0,0.,12.0
1979-03-03 19:34:14.190 ,1,1,30.,12.0,30.,12.0,0.,12.0,1.,12.0
1979-03-03 19:34:26.190 ,1,1,23.,12.0,22.,12.0,0.,12.0,0.,12.0
1979-03-03 19:34:38.190 ,0,1,23.,12.0,11.,12.0,0.,12.0,0.,12.0
1979-03-03 19:34:50.190 ,0,1,26.,12.0,24.,12.0,0.,12.0,0.,12.0
1979-03-03 19:35:02.190 ,0,1,21.,12.0,24.,12.0,0.,12.0,0.,12.0
1979-03-03 19:35:14.190 ,0,1,28.,12.0,24.,12.0,0.,12.0,1.,12.0
1979-03-03 19:35:26.190 ,1,1,16.,12.0,25.,12.0,0.,12.0,0.,12.0
1979-03-03 19:35:38.190 ,1,1,18.,12.0,22.,12.0,0.,12.0,1.,12.0
1979-03-03 19:35:50.190 ,2,1,17.,12.0,14.,12.0,0.,12.0,0.,12.0
1979-03-03 19:36:02.190 ,2,1,20.,12.0,13.,12.0,0.,12.0,0.,12.0
1979-03-03 19:36:14.190 ,3,1,40.,12.0,15.,12.0,0.,12.0,0.,12.0
1979-03-03 19:36:26.190 ,3,1,31.,12.0,29.,12.0,0.,12.0,1.,12.0
1979-03-03 19:36:38.190 ,4,1,23.,12.0,23.,12.0,0.,12.0,0.,12.0
1979-03-03 19:36:50.190 ,4,1,32.,12.0,15.,12.0,0.,12.0,0.,12.0
1979-03-03 19:37:02.190 ,5,1,28.,12.0,30.,12.0,0.,12.0,0.,12.0
1979-03-03 19:37:14.190 ,5,1,33.,12.0,29.,12.0,0.,12.0,0.,12.0
1979-03-03 19:37:26.190 ,6,1,38.,12.0,25.,12.0,0.,12.0,0.,12.0
1979-03-03 19:37:38.190 ,6,1,38.,12.0,23.,12.0,0.,12.0,0.,12.0
1979-03-03 19:37:50.190 ,7,1,33.,12.0,21.,12.0,0.,12.0,0.,12.0
1979-03-03 19:38:02.190 ,7,1,12.,12.0,13.,12.0,0.,12.0,0.,12.0
1979-03-03 19:38:14.190 ,7,1,0.,12.0,4.,12.0,0.,12.0,2.,12.0
1979-03-03 19:38:26.190 ,7,1,0.,12.0,11.,12.0,0.,12.0,0.,12.0
1979-03-03 19:38:38.190 ,6,1,0.,12.0,10.,12.0,0.,12.0,2.,12.0
1979-03-03 19:38:50.190 ,6,1,38.,12.0,16.,12.0,0.,12.0,1.,12.0
1979-03-03 19:39:02.190 ,5,1,44.,12.0,36.,12.0,0.,12.0,1.,12.0
1979-03-03 19:39:14.190 ,5,1,36.,12.0,18.,12.0,0.,12.0,0.,12.0
1979-03-03 19:39:26.190 ,4,1,31.,12.0,21.,12.0,0.,12.0,1.,12.0
1979-03-03 19:39:38.190 ,4,1,38.,12.0,29.,12.0,0.,12.0,0.,12.0
1979-03-03 19:39:50.190 ,3,1,35.,12.0,24.,12.0,0.,12.0,0.,12.0
1979-03-03 19:40:02.190 ,3,1,26.,12.0,19.,12.0,0.,12.0,0.,12.0
1979-03-03 19:40:14.190 ,2,1,19.,12.0,30.,12.0,0.,12.0,0.,12.0
1979-03-03 19:40:26.190 ,2,1,27.,12.0,24.,12.0,0.,12.0,0.,12.0
1979-03-03 19:40:38.190 ,1,1,21.,12.0,27.,12.0,0.,12.0,0.,12.0
1979-03-03 19:40:50.190 ,1,1,17.,12.0,20.,12.0,0.,12.0,1.,12.0
1979-03-03 19:41:02.190 ,0,1,21.,12.0,16.,12.0,0.,12.0,0.,12.0
1979-03-03 19:41:14.190 ,0,1,12.,12.0,18.,12.0,0.,12.0,1.,12.0
1979-03-03 19:41:26.190 ,0,1,24.,12.0,16.,12.0,0.,12.0,0.,12.0
1979-03-03 19:41:38.190 ,0,1,23.,12.0,21.,12.0,0.,12.0,0.,12.0
1979-03-03 19:41:50.190 ,1,1,24.,12.0,17.,12.0,0.,12.0,0.,12.0
1979-03-03 19:42:02.190 ,1,1,27.,12.0,15.,12.0,0.,12.0,0.,12.0
1979-03-03 19:42:14.190 ,2,1,23.,12.0,19.,12.0,0.,12.0,1.,12.0
1979-03-03 19:42:26.190 ,2,1,20.,12.0,19.,12.0,0.,12.0,0.,12.0
1979-03-03 19:42:38.190 ,3,1,21.,12.0,28.,12.0,0.,12.0,0.,12.0
1979-03-03 19:42:50.190 ,3,1,28.,12.0,26.,12.0,0.,12.0,1.,12.0
1979-03-03 19:43:02.190 ,4,1,22.,12.0,20.,12.0,0.,12.0,0.,12.0
1979-03-03 19:43:14.190 ,4,1,22.,12.0,20.,12.0,0.,12.0,0.,12.0
1979-03-03 19:43:26.190 ,0,0,25.,12.0,27.,12.0,0.,12.0,0.,12.0
1979-03-03 19:43:38.190 ,0,0,44.,12.0,33.,12.0,0.,12.0,1.,12.0
1979-03-03 20:35:18.990 ,0,0,,0,,0,,0,,0
1979-03-03 20:35:30.990 ,0,0,,0,,0,,0,,0
1979-03-03 20:35:26.190 ,0,0,19.,12.0,19.,12.0,0.,12.0,1.,12.0
1979-03-03 20:35:38.190 ,0,0,15.,12.0,15.,12.0,0.,12.0,0.,12.0
1979-03-03 20:35:50.190 ,7,1,0.,12.0,9.,12.0,0.,12.0,1.,12.0
1979-03-03 20:36:02.190 ,7,1,0.,12.0,5.,12.0,0.,12.0,0.,12.0
1979-03-03 20:36:14.190 ,6,1,0.,12.0,8.,12.0,0.,12.0,2.,12.0
1979-03-03 20:36:26.190 ,6,1,13.,12.0,19.,12.0,0.,12.0,1.,12.0
1979-03-03 20:36:38.190 ,5,1,24.,12.0,18.,12.0,0.,12.0,2.,12.0
1979-03-03 20:36:50.190 ,5,1,25.,12.0,21.,12.0,0.,12.0,1.,12.0
1979-03-03 20:37:02.190 ,0,0,15.,12.0,19.,12.0,0.,12.0,0.,12.0
1979-03-03 20:37:14.190 ,0,0,18.,12.0,12.,12.0,0.,12.0,0.,12.0
1979-03-03 20:37:26.190 ,0,0,15.,12.0,11.,12.0,0.,12.0,0.,12.0
1979-03-03 20:37:38.190 ,0,0,19.,12.0,14.,12.0,0.,12.0,1.,12.0
1979-03-03 20:37:50.190 ,2,1,14.,12.0,10.,12.0,0.,12.0,0.,12.0
1979-03-03 20:38:02.190 ,2,1,19.,12.0,8.,12.0,0.,12.0,1.,12.0
1979-03-03 20:38:14.190 ,1,1,16.,12.0,16.,12.0,0.,12.0,2.,12.0
1979-03-03 20:38:26.190 ,1,1,14.,12.0,19.,12.0,0.,12.0,1.,12.0
1979-03-03 20:38:38.190 ,0,1,15.,12.0,7.,12.0,0.,12.0,1.,12.0
1979-03-03 20:38:50.190 ,0,1,11.,12.0,11.,12.0,0.,12.0,0.,12.0
1979-03-03 20:39:02.190 ,0,1,12.,12.0,17.,12.0,0.,12.0,1.,12.0
1979-03-03 20:39:14.190 ,0,1,9.,12.0,9.,12.0,0.,12.0,0.,12.0
1979-03-03 20:39:26.190 ,1,1,5.,12.0,8.,12.0,0.,12.0,0.,12.0
1979-03-03 20:39:38.190 ,1,1,10.,12.0,13.,12.0,0.,12.0,0.,12.0
1979-03-03 20:39:50.190 ,2,1,9.,12.0,15.,12.0,0.,12.0,0.,12.0
1979-03-03 20:40:02.190 ,2,1,14.,12.0,13.,12.0,0.,12.0,0.,12.0
1979-03-03 20:40:14.190 ,3,1,19.,12.0,10.,12.0,0.,12.0,0.,12.0
1979-03-03 20:40:26.190 ,3,1,14.,12.0,16.,12.0,0.,12.0,1.,12.0
1979-03-03 20:40:38.190 ,0,0,15.,12.0,11.,12.0,0.,12.0,1.,12.0
1979-03-03 20:40:50.190 ,0,0,17.,12.0,11.,12.0,0.,12.0,0.,12.0
1979-03-03 20:41:02.190 ,5,1,16.,12.0,17.,12.0,0.,12.0,0.,12.0